| time (UTC) | temp F | wind direction | speed knots | gust knots | rain 1hr in | rain 24hr in | rain mn in | humidity % | barometer mb |
| 20260902021538 | 74 | 120 | 2.6 | 5.2 | 0.00 | 0.00 | 0.00 | 59 | 1003.8 |
| 20260902020038 | 75 | 120 | 1.7 | 6.1 | 0.00 | 0.00 | 0.00 | 58 | 1003.8 |
| 20260902014538 | 77 | 120 | 3.5 | 6.1 | 0.00 | 0.00 | 0.00 | 53 | 1004.1 |
| 20260902013048 | 77 | 120 | 1.7 | 3.5 | 0.00 | 0.00 | 0.00 | 51 | 1004.1 |
| 20260902011537 | 77 | 120 | 2.6 | 6.1 | 0.00 | 0.00 | 0.00 | 53 | 1004.2 |
| 20260902010047 | 78 | 120 | 2.6 | 6.1 | 0.00 | 0.00 | 0.00 | 52 | 1004.3 |
| 20260902004537 | 79 | 120 | 3.5 | 6.1 | 0.00 | 0.00 | 0.00 | 50 | 1004.2 |
| 20260902003113 | 80 | 120 | 4.3 | 7.8 | 0.00 | 0.00 | 0.00 | 48 | 1004.3 |
| 20260902001537 | 81 | 120 | 6.1 | 10.4 | 0.00 | 0.00 | 0.00 | 47 | 1004.2 |
| 20260902000040 | 81 | 134 | 2.6 | 7.8 | 0.00 | 0.00 | 0.00 | 45 | 1004.3 |
| 20260901234539 | 80 | 136 | 5.2 | 8.7 | 0.00 | 0.00 | 0.00 | 44 | 1004.5 |
| 20260901233039 | 80 | 138 | 4.3 | 8.7 | 0.00 | 0.00 | 0.00 | 45 | 1004.4 |
| 20260901231547 | 80 | 152 | 4.3 | 8.7 | 0.00 | 0.00 | 0.00 | 46 | 1004.6 |
| 20260901230038 | 80 | 171 | 4.3 | 7.0 | 0.00 | 0.00 | 0.00 | 46 | 1004.8 |
| 20260901224537 | 79 | 172 | 2.6 | 7.0 | 0.00 | 0.00 | 0.00 | 44 | 1004.9 |
| 20260901223034 | 79 | 173 | 3.5 | 6.1 | 0.00 | 0.00 | 0.00 | 46 | 1005.2 |
| 20260901221542 | 78 | 176 | 2.6 | 6.1 | 0.00 | 0.00 | 0.00 | 46 | 1005.2 |
| 20260901220043 | 78 | 176 | 0.9 | 2.6 | 0.00 | 0.00 | 0.00 | 48 | 1005.2 |
| 20260901214540 | 77 | 0 | 0.9 | 4.3 | 0.00 | 0.00 | 0.00 | 48 | 1005.4 |
| 20260901213040 | 77 | 176 | 3.5 | 6.1 | 0.00 | 0.00 | 0.00 | 54 | 1005.6 |
| 20260901211537 | 76 | 176 | 2.6 | 6.1 | 0.00 | 0.00 | 0.00 | 53 | 1005.6 |
| 20260901210047 | 76 | 176 | 5.2 | 9.6 | 0.00 | 0.00 | 0.00 | 56 | 1005.7 |
| 20260901204535 | 75 | 166 | 2.6 | 9.6 | 0.00 | 0.00 | 0.00 | 56 | 1005.8 |
| 20260901203041 | 74 | 161 | 4.3 | 7.8 | 0.00 | 0.00 | 0.00 | 59 | 1006.2 |
| 20260901201537 | 72 | 143 | 3.5 | 6.1 | 0.00 | 0.00 | 0.00 | 57 | 1006.4 |
| 20260901200036 | 72 | 145 | 3.5 | 7.0 | 0.00 | 0.00 | 0.00 | 56 | 1006.4 |
| 20260901194537 | 72 | 141 | 3.5 | 7.8 | 0.00 | 0.00 | 0.00 | 56 | 1006.7 |
| 20260901193039 | 71 | 216 | 1.7 | 6.1 | 0.00 | 0.00 | 0.00 | 57 | 1006.6 |
| 20260901191539 | 70 | 216 | 2.6 | 6.1 | 0.00 | 0.00 | 0.00 | 56 | 1006.9 |
| 20260901190044 | 69 | 225 | 1.7 | 4.3 | 0.00 | 0.00 | 0.00 | 56 | 1007.0 |
| 20260901184534 | 68 | 225 | 1.7 | 3.5 | 0.00 | 0.00 | 0.00 | 62 | 1007.0 |
| 20260901183039 | 68 | 0 | 0.9 | 3.5 | 0.00 | 0.00 | 0.00 | 60 | 1007.0 |
| 20260901181541 | 68 | 225 | 1.7 | 3.5 | 0.00 | 0.00 | 0.00 | 62 | 1006.8 |
| 20260901180040 | 68 | 243 | 1.7 | 3.5 | 0.00 | 0.00 | 0.00 | 60 | 1007.0 |
| 20260901174548 | 68 | 243 | 1.7 | 4.3 | 0.00 | 0.00 | 0.00 | 60 | 1007.2 |
| 20260901173041 | 67 | 247 | 1.7 | 5.2 | 0.00 | 0.00 | 0.00 | 61 | 1007.4 |
| 20260901171544 | 67 | 0 | 0.0 | 1.7 | 0.00 | 0.00 | 0.00 | 61 | 1006.9 |
| 20260901170044 | 67 | 0 | 0.0 | 0.0 | 0.00 | 0.00 | 0.00 | 62 | 1006.9 |
| 20260901164545 | 66 | 0 | 0.0 | 2.6 | 0.00 | 0.00 | 0.00 | 61 | 1006.9 |
| 20260901163101 | 65 | 0 | 0.0 | 3.5 | 0.00 | 0.00 | 0.00 | 62 | 1007.0 |
| 20260901161540 | 65 | 0 | 0.0 | 2.6 | 0.00 | 0.00 | 0.00 | 64 | 1007.1 |
| 20260901160040 | 64 | 261 | 1.7 | 6.1 | 0.00 | 0.00 | 0.00 | 64 | 1006.8 |
| 20260901154549 | 62 | 254 | 1.7 | 4.3 | 0.00 | 0.00 | 0.00 | 68 | 1006.5 |
| 20260901153043 | 61 | 254 | 1.7 | 3.5 | 0.00 | 0.00 | 0.00 | 67 | 1006.7 |
| 20260901151538 | 59 | 0 | 0.0 | 2.6 | 0.00 | 0.00 | 0.00 | 74 | 1006.8 |
| 20260901150036 | 58 | 0 | 0.9 | 3.5 | 0.00 | 0.00 | 0.00 | 76 | 1006.8 |
| 20260901144542 | 59 | 253 | 1.7 | 4.3 | 0.00 | 0.00 | 0.00 | 75 | 1006.6 |
| 20260901143040 | 58 | 0 | 0.0 | 3.5 | 0.00 | 0.00 | 0.00 | 73 | 1006.2 |
| 20260901141539 | 58 | 254 | 0.9 | 4.3 | 0.00 | 0.00 | 0.00 | 73 | 1006.1 |
| 20260901140049 | 57 | 252 | 2.6 | 4.3 | 0.00 | 0.00 | 0.00 | 75 | 1006.2 |
| 20260901134538 | 57 | 248 | 4.3 | 7.0 | 0.00 | 0.00 | 0.00 | 75 | 1006.4 |
| 20260901133057 | 58 | 324 | 0.0 | 5.2 | 0.00 | 0.00 | 0.00 | 73 | 1006.5 |
| 20260901131542 | 59 | 331 | 3.5 | 5.2 | 0.00 | 0.00 | 0.00 | 70 | 1005.6 |
| 20260901130042 | 59 | 323 | 3.5 | 8.7 | 0.00 | 0.00 | 0.00 | 71 | 1005.7 |
| 20260901124540 | 59 | 5 | 2.6 | 7.0 | 0.00 | 0.00 | 0.00 | 72 | 1005.4 |
| 20260901123040 | 59 | 12 | 1.7 | 4.3 | 0.00 | 0.00 | 0.00 | 70 | 1005.8 |
| 20260901121550 | 60 | 12 | 2.6 | 6.1 | 0.00 | 0.00 | 0.00 | 69 | 1006.0 |
| 20260901120039 | 60 | 17 | 0.0 | 8.7 | 0.00 | 0.00 | 0.00 | 67 | 1006.2 |
| 20260901114540 | 60 | 9 | 4.3 | 8.7 | 0.00 | 0.00 | 0.00 | 69 | 1005.5 |
| 20260901113044 | 60 | 319 | 4.3 | 9.6 | 0.00 | 0.00 | 0.00 | 68 | 1005.9 |
| 20260901111536 | 59 | 352 | 3.5 | 7.0 | 0.00 | 0.00 | 0.00 | 71 | 1005.9 |
| 20260901110047 | 59 | 351 | 3.5 | 7.0 | 0.00 | 0.00 | 0.00 | 72 | 1005.9 |
| 20260901104545 | 60 | 344 | 2.6 | 4.3 | 0.00 | 0.00 | 0.00 | 71 | 1006.0 |
| 20260901103042 | 60 | 343 | 1.7 | 3.5 | 0.00 | 0.00 | 0.00 | 70 | 1006.0 |
| 20260901101542 | 61 | 343 | 2.6 | 7.0 | 0.00 | 0.00 | 0.00 | 67 | 1005.9 |
| 20260901100050 | 60 | 347 | 4.3 | 7.8 | 0.00 | 0.00 | 0.00 | 69 | 1005.7 |
| 20260901094549 | 59 | 325 | 2.6 | 7.0 | 0.00 | 0.00 | 0.00 | 70 | 1005.9 |
| 20260901093039 | 60 | 319 | 2.6 | 3.5 | 0.00 | 0.00 | 0.00 | 68 | 1006.0 |
| 20260901091543 | 61 | 319 | 1.7 | 3.5 | 0.00 | 0.00 | 0.00 | 68 | 1006.1 |
| 20260901090051 | 61 | 319 | 1.7 | 3.5 | 0.00 | 0.00 | 0.00 | 67 | 1006.1 |
| 20260901084540 | 62 | 319 | 1.7 | 3.5 | 0.00 | 0.00 | 0.00 | 65 | 1006.0 |
| 20260901083042 | 63 | 319 | 2.6 | 5.2 | 0.00 | 0.00 | 0.00 | 61 | 1006.1 |
| 20260901081539 | 64 | 319 | 1.7 | 4.3 | 0.00 | 0.00 | 0.00 | 58 | 1006.2 |
| 20260901080038 | 68 | 319 | 3.5 | 8.7 | 0.00 | 0.00 | 0.00 | 51 | 1006.1 |
| 20260901074542 | 68 | 302 | 6.1 | 8.7 | 0.00 | 0.00 | 0.00 | 51 | 1005.9 |
| 20260901073041 | 68 | 311 | 5.2 | 9.6 | 0.00 | 0.00 | 0.00 | 50 | 1005.9 |
| 20260901071543 | 68 | 306 | 6.1 | 10.4 | 0.00 | 0.00 | 0.00 | 50 | 1006.0 |
| 20260901070051 | 69 | 309 | 6.1 | 11.3 | 0.00 | 0.00 | 0.00 | 50 | 1006.1 |
| 20260901064537 | 69 | 294 | 7.0 | 9.6 | 0.00 | 0.00 | 0.00 | 50 | 1006.2 |
| 20260901063043 | 69 | 306 | 7.0 | 10.4 | 0.00 | 0.00 | 0.00 | 50 | 1006.2 |
| 20260901061541 | 69 | 306 | 6.1 | 11.3 | 0.00 | 0.00 | 0.00 | 50 | 1006.3 |
| 20260901060043 | 69 | 309 | 6.1 | 8.7 | 0.00 | 0.00 | 0.00 | 51 | 1006.5 |
| 20260901054544 | 69 | 311 | 5.2 | 8.7 | 0.00 | 0.00 | 0.00 | 52 | 1006.6 |
| 20260901053042 | 69 | 313 | 6.1 | 9.6 | 0.00 | 0.00 | 0.00 | 52 | 1006.6 |
| 20260901051547 | 69 | 310 | 5.2 | 9.6 | 0.00 | 0.00 | 0.00 | 52 | 1006.7 |
| 20260901050041 | 70 | 306 | 6.1 | 10.4 | 0.00 | 0.00 | 0.00 | 50 | 1006.7 |
| 20260901044538 | 70 | 297 | 6.1 | 10.4 | 0.00 | 0.00 | 0.00 | 50 | 1006.8 |
| 20260901043045 | 71 | 310 | 6.1 | 11.3 | 0.00 | 0.00 | 0.00 | 48 | 1006.6 |
| 20260901041542 | 72 | 305 | 7.8 | 11.3 | 0.00 | 0.00 | 0.00 | 46 | 1006.7 |
| 20260901040042 | 72 | 303 | 7.0 | 12.2 | 0.00 | 0.00 | 0.00 | 46 | 1006.7 |
| 20260901034543 | 72 | 294 | 7.8 | 12.2 | 0.00 | 0.00 | 0.00 | 46 | 1006.8 |
| 20260901033041 | 72 | 304 | 7.0 | 9.6 | 0.00 | 0.00 | 0.00 | 47 | 1006.8 |
| 20260901031547 | 73 | 305 | 7.0 | 10.4 | 0.00 | 0.00 | 0.00 | 48 | 1006.8 |
| 20260901030040 | 73 | 313 | 5.2 | 8.7 | 0.00 | 0.00 | 0.00 | 50 | 1006.9 |
| 20260901024543 | 74 | 315 | 5.2 | 8.7 | 0.00 | 0.00 | 0.00 | 50 | 1006.7 |
| 20260901023046 | 74 | 315 | 4.3 | 8.7 | 0.00 | 0.00 | 0.00 | 51 | 1006.8 |